Ariane Rocket - Orbit

View from above orbital plane
View from above orbital plane
View from above satellite
View from above satellite

Ground track
Ground track

The orbit data is extracted from the following two-line orbital elements,

1 23561U 95021B   13139.97954919  .00000278  00000-0  10886-3 0  4857
2 23561 098.6287 098.9075 0006727 002.0911 039.4733 14.36942889947308
Epoch (UTC): 19 May 2013 23:30:33
Eccentricity: 0.0006727
inclination: 98.6287°
perigee height: 764 km
apogee height: 773 km
right ascension of ascending node: 98.9075°
argument of perigee: 2.0911°
revolutions per day: 14.36942889
mean anomaly at epoch: 39.4733°
orbit number at epoch: 94730

The dashed part of the orbit path shows where the satellite is in the earth's shadow,  

Developed and maintained by Chris Peat, Heavens-Above GmbH. Please read the updated FAQ before sending e-mail. Imprint. DLR